Weather History for Chester, CT

Change the Weather History Date:

Friday, April 5, 2013

  Actual Average (KHVN) Record (KHVN)
Temperature  
Mean Temperature 49 °F -  
Max Temperature 59 °F 51 °F 68 °F (1985)
Min Temperature 39 °F 36 °F 23 °F (1982)
Degree Days  
Heating Degree Days 16    
Moisture  
Dew Point 27 °F    
Average Humidity 53    
Maximum Humidity 87    
Minimum Humidity 21    
Precipitation  
Precipitation 0.00 in - - ()
Sea Level Pressure  
Sea Level Pressure 29.86 in    
Wind  
Wind Speed 8 mph (WNW)    
Max Wind Speed 22 mph    
Max Gust Speed 32 mph    
Visibility 10 miles    
Events      
Averages and records for this station are not official NWS values.
T = Trace of Precipitation, MM = Missing Value Source: NWS Daily Summary

Daily Weather History Graph

Daily Weather History Graph

Search for Another Location

Airport:

Trip Planner

Search our weather history database for the weather conditions in past years. The results will help you decide how hot, cold, wet, or windy it might be!

Date:

Astronomy

Apr. 05, 2013 Rise Set
Actual Time 6:26 AM EDT 7:19 PM EDT
Civil Twilight 5:58 AM EDT 7:47 PM EDT
Nautical Twilight 5:24 AM EDT 8:21 PM EDT
Astronomical Twilight 4:50 AM EDT 8:56 PM EDT
Moon 3:34 AM EDT (4/5) 2:37 PM EDT (4/5)
Length of Visible Light 13h 49m
Length of Day
12h 53m
Waning Crescent, 24% of the Moon is Illuminated
Apr 5
Waning Crescent
Apr 10
New
Apr 18
First Quarter
Apr 25
Full
May 2
Last Quarter

Hourly Weather History & Observations

Time (EDT) Temp. Windchill Dew Point Humidity Pressure Visibility Wind Dir Wind Speed Gust Speed Precip Events Conditions
12:15 AM 39.2 °F 33.0 °F 32.0 °F 75% 30.06 in 10.0 mi SW 9.2 mph - N/A   Clear
12:35 AM 39.2 °F 32.5 °F 32.0 °F 75% 30.06 in 10.0 mi SW 10.4 mph - N/A   Clear
12:55 AM 39.2 °F 33.6 °F 30.2 °F 70% 30.05 in 10.0 mi SW 8.1 mph - N/A   Clear
1:15 AM 39.2 °F 34.2 °F 30.2 °F 70% 30.04 in 10.0 mi SW 6.9 mph - N/A   Clear
1:35 AM 39.2 °F 33.6 °F 32.0 °F 75% 30.04 in 10.0 mi SSW 8.1 mph - N/A   Clear
1:55 AM 39.2 °F 33.0 °F 32.0 °F 75% 30.03 in 10.0 mi SW 9.2 mph - N/A   Clear
2:15 AM 39.2 °F 34.2 °F 32.0 °F 75% 30.01 in 10.0 mi SW 6.9 mph - N/A   Clear
2:35 AM 39.2 °F 34.2 °F 32.0 °F 75% 30.01 in 10.0 mi SW 6.9 mph - N/A   Clear
2:55 AM 39.2 °F 31.6 °F 32.0 °F 75% 30.00 in 10.0 mi SW 12.7 mph - N/A   Clear
3:15 AM 39.2 °F 33.6 °F 32.0 °F 75% 30.00 in 10.0 mi SW 8.1 mph - N/A   Clear
3:35 AM 39.2 °F 34.2 °F 33.8 °F 81% 30.00 in 10.0 mi SW 6.9 mph - N/A   Clear
3:55 AM 39.2 °F 34.2 °F 33.8 °F 81% 29.99 in 10.0 mi SW 6.9 mph - N/A   Clear
4:15 AM 39.2 °F 35.0 °F 33.8 °F 81% 29.98 in 10.0 mi SW 5.8 mph - N/A   Clear
4:35 AM 39.2 °F 35.0 °F 33.8 °F 81% 29.97 in 10.0 mi SSW 5.8 mph - N/A   Clear
4:55 AM 39.2 °F 35.9 °F 33.8 °F 81% 29.96 in 10.0 mi SSW 4.6 mph - N/A   Partly Cloudy
5:15 AM 39.2 °F 34.2 °F 33.8 °F 81% 29.96 in 10.0 mi SSW 6.9 mph - N/A   Mostly Cloudy
5:35 AM 39.2 °F 35.9 °F 33.8 °F 81% 29.96 in 10.0 mi SW 4.6 mph - N/A   Overcast
5:55 AM 39.2 °F 35.9 °F 33.8 °F 81% 29.95 in 10.0 mi SSW 4.6 mph - N/A   Overcast
6:15 AM 39.2 °F 35.9 °F 33.8 °F 81% 29.95 in 10.0 mi SSW 4.6 mph - N/A   Mostly Cloudy
6:35 AM 39.2 °F - 33.8 °F 81% 29.94 in 10.0 mi Calm Calm - N/A   Scattered Clouds
6:55 AM 39.2 °F 37.0 °F 35.6 °F 87% 29.95 in 9.0 mi SW 3.5 mph - N/A   Scattered Clouds
7:15 AM 39.2 °F 35.9 °F 35.6 °F 87% 29.93 in 10.0 mi SSW 4.6 mph - N/A   Overcast
7:35 AM 39.2 °F 35.0 °F 35.6 °F 87% 29.93 in 10.0 mi SSW 5.8 mph - N/A   Overcast
7:55 AM 39.2 °F 35.0 °F 35.6 °F 87% 29.92 in 10.0 mi SW 5.8 mph - N/A   Overcast
8:15 AM 41.0 °F 38.0 °F 35.6 °F 81% 29.91 in 10.0 mi SSW 4.6 mph - N/A   Overcast
8:35 AM 41.0 °F 39.0 °F 35.6 °F 81% 29.90 in 10.0 mi WSW 3.5 mph - N/A   Mostly Cloudy
8:55 AM 41.0 °F 38.0 °F 35.6 °F 81% 29.90 in 10.0 mi WSW 4.6 mph - N/A   Mostly Cloudy
9:15 AM 41.0 °F 39.0 °F 33.8 °F 76% 29.88 in 10.0 mi WSW 3.5 mph - N/A   Overcast
9:35 AM 42.8 °F - 33.8 °F 70% 29.88 in 10.0 mi Calm Calm - N/A   Overcast
9:55 AM 42.8 °F - 33.8 °F 70% 29.87 in 10.0 mi Calm Calm - N/A   Overcast
10:15 AM 44.6 °F - 33.8 °F 66% 29.86 in 10.0 mi Calm Calm - N/A   Overcast
10:35 AM 44.6 °F - 32.0 °F 61% 29.85 in 10.0 mi Calm Calm - N/A   Scattered Clouds
10:55 AM 48.2 °F - 33.8 °F 58% 29.83 in 9.0 mi Calm Calm - N/A   Clear
11:15 AM 48.2 °F - 30.2 °F 50% 29.82 in 10.0 mi NW 6.9 mph - N/A   Clear
11:35 AM 50.0 °F - 28.4 °F 43% 29.80 in 10.0 mi WSW 5.8 mph - N/A   Clear
11:55 AM 53.6 °F - 26.6 °F 35% 29.78 in 10.0 mi North 8.1 mph - N/A   Clear
12:15 PM 53.6 °F - 21.2 °F 28% 29.77 in 10.0 mi North 6.9 mph - N/A   Clear
12:35 PM 55.4 °F - 21.2 °F 26% 29.75 in 10.0 mi North 9.2 mph - N/A   Clear
12:55 PM 55.4 °F - 17.6 °F 23% 29.74 in 10.0 mi North 12.7 mph 16.1 mph N/A   Clear
1:15 PM 53.6 °F - 19.4 °F 26% 29.73 in 10.0 mi NNE 9.2 mph - N/A   Clear
1:35 PM 57.2 °F - 19.4 °F 23% 29.71 in 10.0 mi NW 9.2 mph - N/A   Clear
1:55 PM 57.2 °F - 19.4 °F 23% 29.71 in 10.0 mi NW 6.9 mph - N/A   Clear
2:15 PM 57.2 °F - 19.4 °F 23% 29.70 in 10.0 mi ENE 6.9 mph - N/A   Clear
2:35 PM 57.2 °F - 19.4 °F 23% 29.68 in 10.0 mi NNW 3.5 mph - N/A   Clear
2:55 PM 55.4 °F - 30.2 °F 38% 29.68 in 10.0 mi SW 6.9 mph - N/A   Clear
3:15 PM 55.4 °F - 30.2 °F 38% 29.67 in 10.0 mi WSW 5.8 mph - N/A   Clear
3:35 PM 55.4 °F - 30.2 °F 38% 29.67 in 10.0 mi SW 9.2 mph - N/A   Clear
3:55 PM 55.4 °F - 30.2 °F 38% 29.67 in 10.0 mi SW 6.9 mph - N/A   Clear
4:15 PM 57.2 °F - 26.6 °F 31% 29.68 in 9.0 mi NW 15.0 mph 23.0 mph N/A   Clear
4:35 PM 59.0 °F - 19.4 °F 22% 29.68 in 10.0 mi NNW 15.0 mph 20.7 mph N/A   Clear
4:55 PM 57.2 °F - 17.6 °F 21% 29.70 in 10.0 mi North 17.3 mph 27.6 mph N/A   Clear
5:15 PM 57.2 °F - 19.4 °F 23% 29.71 in 10.0 mi North 11.5 mph 19.6 mph N/A   Clear
5:35 PM 57.2 °F - 19.4 °F 23% 29.73 in 10.0 mi North 13.8 mph 24.2 mph N/A   Clear
5:55 PM 55.4 °F - 15.8 °F 21% 29.75 in 10.0 mi North 13.8 mph 21.9 mph N/A   Clear
6:15 PM 53.6 °F - 17.6 °F 24% 29.76 in 10.0 mi North 12.7 mph 21.9 mph N/A   Clear
6:35 PM 51.8 °F - 19.4 °F 28% 29.77 in 10.0 mi NNW 10.4 mph 25.3 mph N/A   Clear
6:55 PM 51.8 °F - 17.6 °F 26% 29.78 in 10.0 mi NNW 17.3 mph 25.3 mph N/A   Clear
7:15 PM 50.0 °F - 17.6 °F 28% 29.80 in 10.0 mi NNW 15.0 mph 25.3 mph N/A   Clear
7:35 PM 48.2 °F - 17.6 °F 30% 29.81 in 10.0 mi NNW 16.1 mph 24.2 mph N/A   Clear
7:55 PM 48.2 °F - 17.6 °F 30% 29.83 in 10.0 mi NNW 21.9 mph 32.2 mph N/A   Clear
8:15 PM 46.4 °F 40.1 °F 17.6 °F 32% 29.85 in 10.0 mi NNW 15.0 mph 23.0 mph N/A   Clear
8:35 PM 46.4 °F 40.1 °F 19.4 °F 34% 29.87 in 10.0 mi NW 15.0 mph 20.7 mph N/A   Clear
8:55 PM 44.6 °F 39.2 °F 17.6 °F 34% 29.88 in 10.0 mi NNW 10.4 mph 17.3 mph N/A   Clear
9:15 PM 44.6 °F 37.8 °F 17.6 °F 34% 29.88 in 10.0 mi NNW 15.0 mph 23.0 mph N/A   Clear
9:35 PM 42.8 °F 35.4 °F 17.6 °F 36% 29.89 in 10.0 mi NNW 15.0 mph 26.5 mph N/A   Clear
9:55 PM 42.8 °F 37.0 °F 19.4 °F 39% 29.90 in 10.0 mi NNW 10.4 mph 27.6 mph N/A   Clear
10:15 PM 42.8 °F 35.1 °F 19.4 °F 39% 29.91 in 10.0 mi NNW 16.1 mph 21.9 mph N/A   Clear
10:35 PM 41.0 °F 33.1 °F 21.2 °F 45% 29.92 in 10.0 mi NNW 15.0 mph 29.9 mph N/A   Clear
10:55 PM 41.0 °F 33.9 °F 23.0 °F 49% 29.92 in 10.0 mi NNW 12.7 mph 26.5 mph N/A   Clear
11:15 PM 39.2 °F 29.8 °F 23.0 °F 52% 29.92 in 10.0 mi NNW 18.4 mph 26.5 mph N/A   Clear
11:35 PM 39.2 °F 30.2 °F 23.0 °F 52% 29.93 in 10.0 mi NNW 17.3 mph 28.8 mph N/A   Clear
11:55 PM 39.2 °F 30.2 °F 23.0 °F 52% 29.94 in 10.0 mi NNW 17.3 mph 24.2 mph N/A   Clear